Regional Weather Roundup
Issued by NWS

Home | Current Version | Previous Version | Graphics & Text | Print | Product List | Glossary On
Versions: 1 2 3 4 5 6 7 8 9 10 11 12 13 14 15 16 17 18 19 20 21 22 23 24 25 26 27 28 29 30 31 32 33 34 35 36 37 38 39 40 41 42 43 44 45 46 47 48 49 50
000
ASUS43 KDTX 250901
RWRMI
MICHIGAN HOURLY REGIONAL WEATHER ROUNDUP
NATIONAL WEATHER SERVICE DETROIT/PONTIAC MI
500 AM EDT SAT OCT 25 2014

NOTE: "FAIR" INDICATES FEW OR NO CLOUDS BELOW 12,000 FEET WITH NO
SIGNIFICANT WEATHER AND/OR OBSTRUCTION TO VISIBILITY.

MIZ047>049-052>055-059>063-066>070-074>076-081>083-251000-
SOUTHEAST LOWER MICHIGAN

CITY           SKY/WX    TMP DP  RH WIND       PRES   REMARKS
ADRIAN         MOCLDY    47  46  97 W6        29.90F FOG
ALMA           PTCLDY    46  46  98 SW6       29.83F FOG
ANN ARBOR      FOG       35  34  96 W5        29.89F VSB 1/4 WCI  31
BAD AXE        MOCLDY    46  46 100 S5        29.83F FOG
CARO           CLOUDY    45  45 100 S3        29.82F FOG
DETROIT CITY   PTCLDY    50  45  83 SW5       29.88F
DETROIT        PTCLDY    44  42  93 S5        29.89F FOG
FLINT          CLOUDY    51  46  83 SW8       29.86F HAZE
GROSSE ILE     MOCLDY    50  46  87 S5        29.88F FOG
HILLSDALE      MOCLDY    53  52  98 SW5       29.88F
HOWELL         CLOUDY    48  47  96 S6        29.86F FOG

CITY           SKY/WX    TMP DP  RH WIND       PRES   REMARKS
JACKSON        MOCLDY    50  48  93 SW8       29.87F
LAMBERTVILLE   MOCLDY    52  46  82 SW5       29.90F FOG
LANSING        CLOUDY    50  47  89 S6        29.85F FOG
LAPEER         FAIR      44  43  96 CALM      29.85F FOG
MASON          CLOUDY    49  47  92 CALM      29.86F
MONROE         MOCLDY    48  46  93 SW5       29.88F FOG
MT. CLEMENS    CLEAR     48  47  99 SW7       29.84F
PONTIAC        CLEAR     45  43  93 CALM      29.86F FOG
PORT HOPE        N/A     49  46  90 SW8       29.79F
PORT HURON     PTCLDY    45  43  93 SW3       29.86F FOG
TRI CITIES     MOCLDY    48  46  93 S7        29.83F FOG
TROY           CLEAR     48  45  90 SW5       29.88F FOG
SAGINAW HB     CLOUDY    50  50 100 S7        29.82F FOG
$$
MIZ043>046-050>051-056>058-064>065-071>073-077>080-251000-
SOUTHWEST LOWER MICHIGAN

CITY           SKY/WX    TMP DP  RH WIND       PRES   REMARKS
BATTLE CREEK   CLOUDY    53  48  83 SW8       29.87F
BENTON HARBOR  CLOUDY    57  51  80 SW9       29.88F
BIG RAPIDS     CLOUDY    52  52 100 W6        29.81S
COLDWATER      CLOUDY    54  51  90 SW8       29.88F
FREMONT        CLOUDY    53  51  93 SW5       29.83S
HOLLAND        CLOUDY    60  52  74 SW14      29.86F
GRAND RAPIDS   CLOUDY    55  49  80 SW9       29.84F
IONIA          CLOUDY    53  49  88 SW7       29.83F
KALAMAZOO      CLOUDY    52  49  89 S7        29.87F FOG
LUDINGTON      MOCLDY    54  52  92 W6        29.82F FOG
MARSHALL       CLOUDY    51  48  91 SW3       29.86F
MOUNT PLEASANT MOCLDY    48  47  97 SW3       29.81S FOG
MUSKEGON       MOCLDY    58  50  75 W12G18    29.84S
SOUTH HAVEN    CLOUDY    60  53  77 SW12G17   29.87S
$$
MIZ016>042-251000-
NORTHERN LOWER MICHIGAN

CITY           SKY/WX    TMP DP  RH WIND       PRES   REMARKS
ALPENA         CLOUDY    47  44  90 SW9       29.73F
BEAVER ISLAND  CLOUDY    53  52  95 SW12G20   29.71F FOG
BELLAIRE       CLOUDY    53  48  85 SW5       29.76F
CADILLAC       CLOUDY    49  48  95 SW8       29.79F
CHARLEVOIX     CLOUDY    55  53  91 W15G21    29.77S
FRANKFORT      CLOUDY    55  50  85 SW6       29.78F HAZE
GAYLORD        CLOUDY    50  47  89 SW14      29.75F
GRAYLING       CLOUDY    49  47  92 W3        29.78F
HARBOR SPRINGS CLOUDY    54  49  85 SW7       29.73F
HOUGHTON LAKE  CLOUDY    47  46  97 SW3       29.79F
MANISTEE       CLOUDY    55  48  76 W9        29.80F
OSCODA         MOCLDY    46  46 100 SW8       29.77F FOG
PELLSTON       CLOUDY    54  49  83 W13G24    29.72F
TRAVERSE CITY  CLOUDY    54  48  80 SW6       29.75F
$$
MIZ007>008-015-251000-
EASTERN UPPER MICHIGAN

CITY           SKY/WX    TMP DP  RH WIND       PRES   REMARKS
KINROSS        CLOUDY    52  50  93 SW8G16    29.66F
MACKINAC ISLAN CLOUDY    52  51  97 SW17G24   29.68F FOG
NEWBERRY       CLOUDY    50  49  97 SW13G21   29.66F FOG
S. S. MARIE    CLOUDY    52  49  89 SW13G21   29.64F
MUNISING         N/A     54  48  80 SW9       29.66S
$$
MIZ004>006-011>014-085-251000-
CENTRAL UPPER MICHIGAN

CITY           SKY/WX    TMP DP  RH WIND       PRES   REMARKS
MANISTIQUE     MOCLDY    51  50  98 W8        29.68F FOG
ESCANABA       CLEAR     48  46  93 W9        29.70F
MENOMINEE      CLEAR     54  48  82 W7        29.75S
SAWYER-GWINN   CLEAR     50  47  89 W6        29.69S
$$
MIZ001>003-009>011-084-251000-
WESTERN UPPER MICHIGAN

CITY           SKY/WX    TMP DP  RH WIND       PRES   REMARKS
IRON MOUNTAIN  CLEAR     54  48  80 W12       29.72F
HOUGHTON       CLEAR     53  38  56 W17G23    29.67S
COPPER HARBOR    N/A     57  37  47 NW9G18    29.63S
IRONWOOD       CLEAR     50  39  66 W10       29.76F
$$

ABBREVIATIONS USED IN REMARKS
   TC - TEMPERATURE IN CELSIUS
  WCI - WIND CHILL INDEX
   HX - HEAT INDEX
  VSB - VISIBILITY




USA.gov is the U.S. government's official web portal to all federal, state and local government web resources and services.